Timeline UpdatesTrip UpdatesNews PostsPvt PostsTravel TipsAdmin PostsConv PostsFollowed PostsChat RequestsBlog PostsPNR Posts

Disclaimer
Search
 
 
Thu Aug 21, 2014 13:44:22 ISTHomeTrainsΣChainsAtlasPNRForumGalleryNewsFAQTripsMembersLoginFeedback
No Recent News for this Train
Other Trains in the News **new
Latest...
Rung wit BE
Thu Jul 18, 2013 (08:22AM)
⇐ Return Journey: Train# 16688

16687 slip route⇒16687/Navyug Express

Aug 17 (4:26PM)
Change Departure Station:
Change Arrival Station:
Post a Train Travel TipPost a Train Travel Tip **new
Post a Comment/Question/Picture/VideoPost a Comment/Question/Picture/Video
Pantry/Catering
✓ Pantry Car Avbl
✓ Catering Avbl
Good Food
RSA - Rake Sharing
NO RSA
Rake/Coach Composition
LOCO-SLR-UR-A2-S9-S8-S7-S6-PC-S5-S4-S3-S2-S1-A1-B1-UR-UR-SLR
Loco
WDM3A ERS shed MAQ-SRR SRR to NDLS - WAP 4 WDM3A TKD...
Read more...
Shed frm NDLS 2 JAT
News    PNR    Forum    Time-Table    Availability    Fare Chart    Map    Arr/Dep History    Trips    Gallery    ΣChains    X/O    Timeline    
Travel Time: 0h 32m    0 halts    Distance: 9 km    Avg Speed: 16 km/hr
Type: Mail/Express
Zone: SR/Southern
Departs @ 12:38
Platform# 1
    T  
Bari Brahman/BBMN 
Arrives @ 13:10
Platform# 3
    T  
Jammu Tawi/JAT 

0 halts. 0 intermediate Stations between Bari Brahman and Jammu Tawi

Show ALL intermediate Stations  Show Old Time-Table

#CodeStation NameX/OArrivesAvgDepartsAvgHaltPFDay#KmSpeedElevZoneAddress
1MAQMangalore Central (4)  -16:50-21-3599.86214mSRMangalore 575001, Karnataka
2KGQKasaragod (3)O  17:34-17:35-1m--1-3554.15718mSRTel: 04994 220800, Kerala
3CANKannur Main (4)X  19:05-19:10-5m31-3468.16514mSRKannur Tel: 0497 2705555, Kerala
4TLYThalassery (2)  19:29-19:30-1m--1-3447.4559mSRKannur, Kerala
5CLTKozhikode Main (4)  20:45-20:50-5m--1-3379.05811mSRCalicut Tel: 0495 2701234, Kerala
6SRRShoranur Junction (7)  22:20-22:30-10m41-3292.75926mSRShoranur ph.no 0466-2222913, Kerala
7PGTPalakkad Junction (4)  23:15-23:20-5m31-3248.14184mSRPalghat Tel: 0491 2555231, Kerala
8CBECoimbatore Main Junction (6)  00:41-00:45-4m--2-3192.870416mSRCoimbatore 641001, Tamil Nadu
9TUPTiruppur (2)  01:28-01:30-2m22-3142.335305mSRTiruppur. Ph:0421-2200450, Tamil Nadu
10EDErode Junction (4)  02:55-03:05-10m12-3092.174175mSRErode ph.no: 0424-2256111, Tamil Nadu
11SASalem Junction (6)X  03:55-04:00-5m--2-3030.756283mSRSalem, Tamil Nadu
12JTJJolarpettai Junction (5)  06:08-06:10-2m--2-2910.569405mSRJolarpettai, Tamil Nadu
13KPDKatpadi Junction (5)  07:23-07:25-2m--2-2826.747213mSRVellore 632007, Tamil Nadu
14CTOChittoor (3)X  08:07-08:08-1m--2-2793.651305mSCR517001., Andhra Pradesh
15TPTYTirupati Main (5)  09:33-09:35-2m--2-2721.740150mSCRChittoor Distt, Andhra Pradesh
16RURenigunta Junction (5)  09:50-10:00-10m--2-2711.851113mSCRChittoor District, Andhra Pradesh
17GDRGudur Junction (3)X  11:38-11:40-2m22-2628.49219mSCRGudur, Andhra Pradesh
18NLRNellore (4)  12:05-12:06-1m22-2590.08121mSCRNellore, Andhra Pradesh
19OGLOngole (3)  13:32-13:33-1m12-2473.28312mSCROngole, Andhra Pradesh
20TELTenali Junction (5)X  14:50-14:51-1m42-2366.22416mSCRTel: 08644-227834, Andhra Pradesh
21BZAVijayawada Junction (10)  16:10-16:25-15m--2-2334.99324mSCRVijayawada 520001, Andhra Pradesh
22KMTKhammam (2)  17:30-17:32-2m22-2234.650118mSCRKhammam 507001, Telangana
23WLWarangal (3)  19:40-19:45-5m22-2127.076271mSCRWarangal., Telangana
24RDMRamagundam (3)  21:05-21:06-1m12-2025.859170mSCRKarimnagar Dist. Ph : 08728 - 255237, Telangana
25BPQBalharshah Junction (5)  23:30-23:40-10m--2-1884.052188mCRBallarpur. Ph : 07172 - 240341, Maharashtra
26CDChandrapur Maharashtra (3)  23:56-23:57-1m--2-1870.373194mCRChandrapur 442401, Maharashtra
27SEGMSewagram Junction (5)  01:35-01:36-1m--3-1751.766279mCRWardha, Maharashtra
28NGPNagpur Junction (8)  02:45-02:55-10m13-1675.566314mCRNagpur 440001, Maharashtra
29ETItarsi Junction (7)X  07:25-07:30-5m--3-1378.352329mWCRItarsi 461111, Madhya Pradesh
30BPLBhopal Junction (6)O  09:15-09:20-5m23-1286.662497mWCRBhopal, Madhya Pradesh
31JHSJhansi Junction (7)XO  14:02-14:10-8m--3-994.873259mNCRJhansi, Uttar Pradesh
32GWLGwalior Junction (4)X  15:30-15:35-5m43-897.182214mNCRGwalior, Madhya Pradesh
33DHODholpur Junction (3)X  16:23-16:24-1m13-831.752177mNCRDholpur, Rajasthan
34AGCAgra Cantt. (6)  17:25-17:30-5m33-779.167174mNCRAgra, Uttar Pradesh
35FDBFaridabad (4)  20:00-20:01-1m23-612.232206mNRold Faridabad, Haryana
36NZMDelhi Hazrat Nizamuddin (7)XO  20:40-21:10-30m13-591.415209mNRNew Delhi 110013, Delhi NCT
37NDLSNew Delhi (16)  21:40-00:10-150m53-584.020215mNRNew Delhi, Delhi NCT
38SSBShakur Basti  00:43-00:44-1m--4-573.270216mNRPitampura, Delhi NCT
39BGZBahadurgarh  01:01-01:02-1m--4-553.273220mNRBahadurgarh, Haryana
40ROKRohtak Junction (3)  01:35-01:40-5m--4-513.062220mNRRohtak, Haryana
41JINDJind Junction (3)  02:35-02:40-5m--4-455.978222mNR126102., Haryana
42NRWNarwana Junction (4)  03:06-03:07-1m--4-422.073235mNRWay to Narwana, Haryana
43TUNTohana (2)X  03:28-03:29-1m--4-396.520232mNRTohana, Haryana
44JHLJakhal Junction  04:05-04:10-5m--4-384.370225mNRJakhal, Haryana
45SFMSunam (1)  04:43-04:44-1m14-346.059235mNRSunam, Punjab
46SAGSangrur (2)X  04:57-04:58-1m24-333.230239mNRSangrur, Punjab
47DUIDhuri Junction (4)  05:30-05:35-5m--4-317.272248mNRDhuri, Punjab
48METMalerkotla (2)X  05:49-05:50-1m--4-300.445248mNRMalerkotla., Punjab
49QRPKila Raipur (1)  06:27-06:28-1m14-272.948262mNRDelhon Pakhowal Rd, Punjab
50LDHLudhiana Junction (7)X  06:50-07:00-10m44-255.133246mNRLudhiana 141001, Punjab
51PHRPhillaur Junction (3)  07:24-07:25-1m24-242.171246mNRPhillaur, Punjab
52PGWPhagwara Junction (3)X  07:44-07:45-1m24-219.565245mNRPhagwara, Punjab
53JRCJalandhar Cantt. Junction (3)  08:00-08:05-5m34-203.262239mNRNear Rama Mandi, Punjab
54TDOTanda Urmar (3)  08:46-08:47-1m14-160.961239mNRUrmar Tanda, Punjab
55DZADasuya (2)  09:02-09:03-1m14-145.653251mNRDasuya distt. hoshiarpur, Punjab
56MEXMukerian (3)X  09:20-09:21-1m24-130.535257mNRMukerian distt. hosiharpur, Punjab
57PTKCPathankot Cantt (3)X  10:30-10:35-5m24-90.731328mNRPathankot By Pass Ph:0186-2251594, Punjab
58KTHUKathua (2)X  11:20-11:21-1m14-67.561396mNRdistt. kathua, Jammu and Kashmir
59SMBXSamba (2)  12:04-12:05-1m24-23.945365mNRDist. Samba, Jammu and Kashmir
60BBMN»Bari Brahman (2)»  12:37-12:38-1m140.016333mNRdistt. samba, Jammu and Kashmir
61JAT•Jammu Tawi (3)•  13:10--348.7-337mNRJammu 180002, Jammu and Kashmir
Scroll to Top
Scroll to Bottom